Terminal Aerodrome Forecast
Issued by NWS

Home | Current Version | Previous Version | Text Only | Print | Product List | Glossary On
Versions: 1 2 3 4 5 6 7 8 9 10 11 12 13 14 15 16 17 18 19 20 21 22 23 24 25 26 27 28 29 30 31 32 33 34 35 36 37 38 39 40 41 42 43 44 45 46 47 48 49 50
000
FTAK31 PANC 040754 AAA
TAFASN
TAF AMD
PASN 040754Z 0408/0506 23007KT 5SM BR SCT001 BKN009 OVC012
      TEMPO 0408/0412 2SM BR SCT001 BKN005 OVC009
     FM041200 23006KT 1SM BR BKN004 OVC008
     FM041800 26010KT 5SM BR SCT003 OVC006
     FM050400 21004KT 3SM BR BKN005 OVC008=

USA.gov is the U.S. government's official web portal to all federal, state and local government web resources and services.